| time (UTC) | temp F | wind direction | speed MPH | gust MPH | rain 1hr in | rain 24hr in | rain mn in | humidity % | barometer mb |
| 20260510204342 | 0 | 133 | 1.0 | 5.0 | 0.00 | 0.00 | 0.00 | 68 | 1013.8 |
| 20260510203403 | 87 | 63 | 2.0 | 4.0 | 0.00 | 0.00 | 0.00 | 68 | 1013.8 |
| 20260510202347 | 88 | 74 | 2.0 | 6.0 | 0.00 | 0.00 | 0.00 | 66 | 1013.6 |
| 20260510201348 | 0 | 160 | 1.0 | 6.0 | 0.00 | 0.00 | 0.00 | 67 | 1013.5 |
| 20260510200331 | 0 | 358 | 2.0 | 9.0 | 0.00 | 0.00 | 0.00 | 66 | 1013.5 |
| 20260510195332 | 88 | 35 | 2.0 | 5.0 | 0.00 | 0.00 | 0.00 | 65 | 1013.7 |
| 20260510194339 | 89 | 328 | 2.0 | 6.0 | 0.00 | 0.00 | 0.00 | 64 | 1013.6 |
| 20260510193341 | 0 | 302 | 3.0 | 7.0 | 0.00 | 0.00 | 0.00 | 65 | 1013.6 |
| 20260510192344 | 89 | 328 | 4.0 | 11.0 | 0.00 | 0.00 | 0.00 | 60 | 1013.8 |
| 20260510191405 | 89 | 325 | 4.0 | 8.0 | 0.00 | 0.00 | 0.00 | 60 | 1013.9 |
| 20260510190335 | 90 | 336 | 4.0 | 9.0 | 0.00 | 0.00 | 0.00 | 57 | 1013.9 |
| 20260510185340 | 91 | 339 | 2.0 | 4.0 | 0.00 | 0.00 | 0.00 | 57 | 1013.9 |
| 20260510184342 | 91 | 329 | 3.0 | 5.0 | 0.00 | 0.00 | 0.00 | 57 | 1013.9 |
| 20260510183347 | 91 | 329 | 3.0 | 8.0 | 0.00 | 0.00 | 0.00 | 57 | 1013.9 |
| 20260510182330 | 0 | 130 | 4.0 | 9.0 | 0.00 | 0.00 | 0.00 | 55 | 1014.0 |
| 20260510181359 | 91 | 63 | 2.0 | 10.0 | 0.00 | 0.00 | 0.00 | 55 | 1014.2 |
| 20260510180339 | 91 | 76 | 2.0 | 6.0 | 0.00 | 0.00 | 0.00 | 52 | 1014.2 |
| 20260510175343 | 0 | 321 | 3.0 | 5.0 | 0.00 | 0.00 | 0.00 | 52 | 1014.2 |
| 20260510174329 | 0 | 321 | 3.0 | 7.0 | 0.00 | 0.00 | 0.00 | 51 | 1014.4 |
| 20260510173353 | 92 | 333 | 3.0 | 7.0 | 0.00 | 0.00 | 0.00 | 50 | 1014.4 |
| 20260510172339 | 92 | 15 | 2.0 | 6.0 | 0.00 | 0.00 | 0.00 | 54 | 1014.3 |
| 20260510171344 | 91 | 339 | 4.0 | 8.0 | 0.00 | 0.00 | 0.00 | 56 | 1014.4 |
| 20260510170344 | 89 | 341 | 3.0 | 6.0 | 0.00 | 0.00 | 0.00 | 55 | 1014.4 |
| 20260510165346 | 90 | 340 | 3.0 | 7.0 | 0.00 | 0.00 | 0.00 | 59 | 1014.5 |
| 20260510164331 | 91 | 349 | 3.0 | 10.0 | 0.00 | 0.00 | 0.00 | 58 | 1014.5 |
| 20260510163336 | 90 | 325 | 3.0 | 9.0 | 0.00 | 0.00 | 0.00 | 59 | 1014.5 |
| 20260510162339 | 89 | 291 | 2.0 | 6.0 | 0.00 | 0.00 | 0.00 | 60 | 1014.5 |
| 20260510161345 | 89 | 294 | 3.0 | 7.0 | 0.00 | 0.00 | 0.00 | 63 | 1014.5 |
| 20260510160331 | 89 | 324 | 4.0 | 7.0 | 0.00 | 0.00 | 0.00 | 67 | 1014.5 |
| 20260510155333 | 88 | 281 | 3.0 | 7.0 | 0.00 | 0.00 | 0.00 | 69 | 1014.7 |
| 20260510154338 | 87 | 307 | 4.0 | 7.0 | 0.00 | 0.00 | 0.00 | 70 | 1014.5 |
| 20260510153400 | 0 | 319 | 2.0 | 6.0 | 0.00 | 0.00 | 0.00 | 71 | 1014.5 |
| 20260510152348 | 86 | 326 | 1.0 | 6.0 | 0.00 | 0.00 | 0.00 | 72 | 1014.5 |
| 20260510151351 | 87 | 315 | 1.0 | 7.0 | 0.00 | 0.00 | 0.00 | 73 | 1014.5 |
| 20260510150331 | 87 | 309 | 3.0 | 6.0 | 0.00 | 0.00 | 0.00 | 72 | 1014.5 |
| 20260510145353 | 0 | 357 | 3.0 | 7.0 | 0.00 | 0.00 | 0.00 | 73 | 1014.6 |
| 20260510144334 | 86 | 284 | 2.0 | 4.0 | 0.00 | 0.00 | 0.00 | 73 | 1014.6 |
| 20260510143340 | 85 | 301 | 2.0 | 6.0 | 0.00 | 0.00 | 0.00 | 74 | 1014.6 |
| 20260510142343 | 85 | 345 | 3.0 | 6.0 | 0.00 | 0.00 | 0.00 | 74 | 1014.5 |
| 20260510141344 | 85 | 319 | 3.0 | 6.0 | 0.00 | 0.00 | 0.00 | 74 | 1014.4 |
| 20260510140405 | 85 | 330 | 3.0 | 7.0 | 0.00 | 0.00 | 0.00 | 77 | 1014.4 |
| 20260510135404 | 84 | 297 | 4.0 | 7.0 | 0.00 | 0.00 | 0.00 | 81 | 1014.2 |
| 20260510134332 | 0 | 314 | 3.0 | 6.0 | 0.00 | 0.00 | 0.00 | 83 | 1014.0 |
| 20260510133354 | 82 | 332 | 3.0 | 7.0 | 0.00 | 0.00 | 0.00 | 85 | 1014.0 |
| 20260510132333 | 81 | 344 | 4.0 | 7.0 | 0.00 | 0.00 | 0.00 | 86 | 1014.0 |
| 20260510131334 | 0 | 332 | 3.0 | 7.0 | 0.00 | 0.00 | 0.00 | 87 | 1014.0 |
| 20260510130339 | 79 | 269 | 2.0 | 7.0 | 0.00 | 0.00 | 0.00 | 88 | 1014.0 |
| 20260510125344 | 79 | 305 | 3.0 | 6.0 | 0.00 | 0.00 | 0.00 | 89 | 1013.9 |
| 20260510124330 | 78 | 319 | 2.0 | 4.0 | 0.00 | 0.00 | 0.00 | 90 | 1013.9 |
| 20260510123330 | 77 | 266 | 1.0 | 3.0 | 0.00 | 0.00 | 0.00 | 91 | 1013.9 |
| 20260510122333 | 77 | 255 | 0.0 | 2.0 | 0.00 | 0.00 | 0.00 | 91 | 1013.9 |
| 20260510121336 | 76 | 255 | 1.0 | 3.0 | 0.00 | 0.00 | 0.00 | 91 | 1013.5 |
| 20260510120401 | 76 | 253 | 1.0 | 3.0 | 0.00 | 0.00 | 0.00 | 91 | 1013.5 |
| 20260510115339 | 76 | 249 | 1.0 | 3.0 | 0.00 | 0.00 | 0.00 | 91 | 1013.4 |
| 20260510114340 | 76 | 226 | 1.0 | 2.0 | 0.00 | 0.00 | 0.00 | 91 | 1013.1 |
| 20260510113327 | 76 | 176 | 0.0 | 0.0 | 0.00 | 0.00 | 0.00 | 91 | 1013.1 |
| 20260510112333 | 75 | 176 | 0.0 | 1.0 | 0.00 | 0.00 | 0.00 | 91 | 1012.9 |
| 20260510111338 | 75 | 176 | 0.0 | 2.0 | 0.00 | 0.00 | 0.00 | 91 | 1012.7 |
| 20260510110339 | 0 | 174 | 0.0 | 3.0 | 0.00 | 0.00 | 0.00 | 91 | 1012.7 |
| 20260510105344 | 75 | 308 | 1.0 | 2.0 | 0.00 | 0.00 | 0.00 | 91 | 1012.4 |
| 20260510104327 | 75 | 313 | 0.0 | 1.0 | 0.00 | 0.00 | 0.00 | 91 | 1012.3 |
| 20260510103331 | 75 | 313 | 0.0 | 0.0 | 0.00 | 0.00 | 0.00 | 91 | 1012.3 |
| 20260510102332 | 0 | 313 | 0.0 | 1.0 | 0.00 | 0.00 | 0.00 | 91 | 1011.9 |
| 20260510101338 | 75 | 313 | 0.0 | 2.0 | 0.00 | 0.00 | 0.00 | 91 | 1011.7 |
| 20260510100359 | 75 | 313 | 0.0 | 1.0 | 0.00 | 0.00 | 0.00 | 91 | 1011.7 |
| 20260510095340 | 0 | 313 | 0.0 | 1.0 | 0.00 | 0.00 | 0.00 | 91 | 1011.4 |
| 20260510094341 | 76 | 313 | 0.0 | 2.0 | 0.00 | 0.00 | 0.00 | 91 | 1011.3 |
| 20260510093407 | 76 | 313 | 0.0 | 1.0 | 0.00 | 0.00 | 0.00 | 91 | 1011.3 |
| 20260510092330 | 75 | 313 | 0.0 | 0.0 | 0.00 | 0.00 | 0.00 | 91 | 1011.3 |
| 20260510091332 | 0 | 313 | 0.0 | 1.0 | 0.00 | 0.00 | 0.00 | 91 | 1011.0 |
| 20260510090330 | 76 | 313 | 0.0 | 1.0 | 0.00 | 0.00 | 0.00 | 91 | 1011.0 |
| 20260510085331 | 76 | 313 | 0.0 | 3.0 | 0.00 | 0.00 | 0.00 | 91 | 1010.8 |
| 20260510084352 | 76 | 311 | 0.0 | 2.0 | 0.00 | 0.00 | 0.00 | 91 | 1010.8 |
| 20260510083337 | 76 | 310 | 0.0 | 1.0 | 0.00 | 0.00 | 0.00 | 91 | 1010.8 |
| 20260510082338 | 76 | 310 | 1.0 | 2.0 | 0.00 | 0.00 | 0.00 | 91 | 1010.9 |
| 20260510081340 | 0 | 311 | 0.0 | 2.0 | 0.00 | 0.00 | 0.00 | 91 | 1011.2 |
| 20260510080341 | 77 | 310 | 1.0 | 2.0 | 0.00 | 0.00 | 0.00 | 91 | 1011.2 |
| 20260510075344 | 77 | 311 | 0.0 | 1.0 | 0.00 | 0.00 | 0.00 | 91 | 1011.2 |
| 20260510074349 | 77 | 311 | 0.0 | 1.0 | 0.00 | 0.00 | 0.00 | 91 | 1011.2 |
| 20260510073332 | 77 | 311 | 0.0 | 0.0 | 0.00 | 0.00 | 0.00 | 91 | 1011.2 |
| 20260510072334 | 77 | 311 | 0.0 | 2.0 | 0.00 | 0.00 | 0.00 | 91 | 1011.2 |
| 20260510071340 | 77 | 30 | 1.0 | 3.0 | 0.00 | 0.00 | 0.00 | 91 | 1011.3 |
| 20260510070345 | 77 | 31 | 0.0 | 1.0 | 0.00 | 0.00 | 0.00 | 91 | 1011.3 |
| 20260510065325 | 0 | 31 | 0.0 | 0.0 | 0.00 | 0.00 | 0.00 | 91 | 1011.6 |
| 20260510064351 | 77 | 31 | 0.0 | 0.0 | 0.00 | 0.00 | 0.00 | 91 | 1011.8 |
| 20260510063355 | 78 | 31 | 0.0 | 0.0 | 0.00 | 0.00 | 0.00 | 91 | 1011.8 |
| 20260510062336 | 0 | 31 | 0.0 | 1.0 | 0.00 | 0.00 | 0.00 | 91 | 1011.9 |
| 20260510061342 | 77 | 31 | 0.0 | 1.0 | 0.00 | 0.00 | 0.00 | 91 | 1012.0 |
| 20260510060346 | 78 | 31 | 0.0 | 0.0 | 0.00 | 0.00 | 0.00 | 90 | 1012.0 |
| 20260510055349 | 0 | 31 | 0.0 | 2.0 | 0.00 | 0.00 | 0.00 | 90 | 1012.4 |
| 20260510054349 | 78 | 31 | 0.0 | 2.0 | 0.00 | 0.00 | 0.00 | 90 | 1012.7 |
| 20260510053333 | 78 | 42 | 0.0 | 2.0 | 0.00 | 0.00 | 0.00 | 90 | 1012.7 |
| 20260510052338 | 0 | 42 | 0.0 | 1.0 | 0.00 | 0.00 | 0.00 | 90 | 1012.5 |
| 20260510051343 | 0 | 42 | 0.0 | 1.0 | 0.00 | 0.00 | 0.00 | 90 | 1012.7 |
| 20260510050344 | 77 | 42 | 0.0 | 0.0 | 0.00 | 0.00 | 0.00 | 90 | 1012.7 |
| 20260510045329 | 77 | 42 | 0.0 | 0.0 | 0.00 | 0.00 | 0.00 | 90 | 1012.8 |
| 20260510044330 | 77 | 42 | 0.0 | 0.0 | 0.00 | 0.00 | 0.00 | 90 | 1012.9 |
| 20260510043332 | 77 | 42 | 0.0 | 0.0 | 0.00 | 0.00 | 0.00 | 90 | 1012.9 |
| 20260510042354 | 77 | 42 | 0.0 | 0.0 | 0.00 | 0.00 | 0.00 | 90 | 1012.9 |
| 20260510041339 | 0 | 42 | 0.0 | 0.0 | 0.00 | 0.00 | 0.00 | 90 | 1012.9 |
| 20260510040338 | 77 | 42 | 0.0 | 0.0 | 0.00 | 0.00 | 0.00 | 89 | 1012.9 |
| 20260510035338 | 77 | 42 | 0.0 | 0.0 | 0.00 | 0.00 | 0.00 | 89 | 1012.6 |
| 20260510034403 | 0 | 42 | 0.0 | 0.0 | 0.00 | 0.00 | 0.00 | 89 | 1012.6 |
| 20260510033327 | 0 | 42 | 0.0 | 2.0 | 0.00 | 0.00 | 0.00 | 88 | 1012.6 |
| 20260510032336 | 78 | 42 | 2.0 | 3.0 | 0.00 | 0.00 | 0.00 | 87 | 1012.5 |
| 20260510031340 | 80 | 43 | 1.0 | 2.0 | 0.00 | 0.00 | 0.00 | 84 | 1012.5 |
| 20260510030342 | 0 | 44 | 0.0 | 2.0 | 0.00 | 0.00 | 0.00 | 83 | 1012.5 |
| 20260510025345 | 80 | 44 | 0.0 | 2.0 | 0.00 | 0.00 | 0.00 | 83 | 1012.4 |
| 20260510024333 | 80 | 53 | 0.0 | 2.0 | 0.00 | 0.00 | 0.00 | 83 | 1012.4 |
| 20260510023337 | 80 | 53 | 0.0 | 2.0 | 0.00 | 0.00 | 0.00 | 83 | 1012.4 |
| 20260510022338 | 80 | 53 | 0.0 | 1.0 | 0.00 | 0.00 | 0.00 | 82 | 1012.3 |
| 20260510021400 | 80 | 53 | 0.0 | 1.0 | 0.00 | 0.00 | 0.00 | 82 | 1012.3 |
| 20260510020345 | 80 | 53 | 0.0 | 2.0 | 0.00 | 0.00 | 0.00 | 82 | 1012.3 |
| 20260510015346 | 81 | 53 | 1.0 | 1.0 | 0.00 | 0.00 | 0.00 | 82 | 1012.3 |
| 20260510014347 | 81 | 53 | 0.0 | 2.0 | 0.00 | 0.00 | 0.00 | 81 | 1012.2 |
| 20260510013347 | 81 | 53 | 0.0 | 1.0 | 0.00 | 0.00 | 0.00 | 80 | 1012.2 |
| 20260510012333 | 81 | 53 | 0.0 | 1.0 | 0.00 | 0.00 | 0.00 | 80 | 1012.0 |
| 20260510011334 | 0 | 56 | 1.0 | 3.0 | 0.00 | 0.00 | 0.00 | 79 | 1011.5 |
| 20260510010335 | 81 | 57 | 0.0 | 2.0 | 0.00 | 0.00 | 0.00 | 79 | 1011.5 |
| 20260510005355 | 81 | 57 | 0.0 | 2.0 | 0.00 | 0.00 | 0.00 | 79 | 1011.5 |
| 20260510004336 | 0 | 28 | 1.0 | 2.0 | 0.00 | 0.00 | 0.00 | 78 | 1011.3 |
| 20260510003403 | 82 | 28 | 1.0 | 3.0 | 0.00 | 0.00 | 0.00 | 77 | 1011.3 |
| 20260510002344 | 82 | 328 | 1.0 | 2.0 | 0.00 | 0.00 | 0.00 | 77 | 1011.2 |
| 20260510001345 | 0 | 328 | 2.0 | 5.0 | 0.00 | 0.00 | 0.00 | 77 | 1010.8 |
| 20260510000348 | 82 | 334 | 3.0 | 5.0 | 0.00 | 0.00 | 0.00 | 76 | 1010.8 |
| 20260509235335 | 82 | 321 | 3.0 | 7.0 | 0.00 | 0.00 | 0.00 | 76 | 1010.7 |
| 20260509234336 | 82 | 325 | 2.0 | 8.0 | 0.00 | 0.00 | 0.00 | 75 | 1010.7 |
| 20260509233341 | 82 | 323 | 2.0 | 6.0 | 0.00 | 0.00 | 0.00 | 74 | 1010.7 |
| 20260509232344 | 83 | 321 | 3.0 | 5.0 | 0.00 | 0.00 | 0.00 | 73 | 1010.7 |
| 20260509231349 | 83 | 324 | 3.0 | 6.0 | 0.00 | 0.00 | 0.00 | 73 | 1010.6 |
| 20260509230353 | 84 | 320 | 1.0 | 4.0 | 0.00 | 0.00 | 0.00 | 72 | 1010.6 |
| 20260509225334 | 0 | 297 | 3.0 | 6.0 | 0.00 | 0.00 | 0.00 | 71 | 1010.6 |
| 20260509224335 | 84 | 334 | 3.0 | 6.0 | 0.00 | 0.00 | 0.00 | 69 | 1010.3 |
| 20260509223336 | 84 | 337 | 3.0 | 7.0 | 0.00 | 0.00 | 0.00 | 67 | 1010.3 |
| 20260509222344 | 85 | 338 | 2.0 | 5.0 | 0.00 | 0.00 | 0.00 | 64 | 1010.3 |
| 20260509221405 | 86 | 14 | 3.0 | 6.0 | 0.00 | 0.00 | 0.00 | 57 | 1010.2 |
| 20260509220345 | 86 | 340 | 2.0 | 10.0 | 0.00 | 0.00 | 0.00 | 58 | 1010.2 |
| 20260509215346 | 0 | 313 | 2.0 | 7.0 | 0.00 | 0.00 | 0.00 | 58 | 1010.0 |
| 20260509214347 | 87 | 312 | 6.0 | 10.0 | 0.00 | 0.00 | 0.00 | 54 | 1009.8 |
| 20260509213333 | 88 | 326 | 4.0 | 12.0 | 0.00 | 0.00 | 0.00 | 51 | 1009.8 |
| 20260509212334 | 88 | 320 | 5.0 | 12.0 | 0.00 | 0.00 | 0.00 | 47 | 1009.7 |
| 20260509211337 | 0 | 347 | 3.0 | 9.0 | 0.00 | 0.00 | 0.00 | 48 | 1009.8 |
| 20260509210338 | 89 | 360 | 3.0 | 6.0 | 0.00 | 0.00 | 0.00 | 44 | 1009.8 |
| 20260509205342 | 89 | 334 | 3.0 | 6.0 | 0.00 | 0.00 | 0.00 | 45 | 1009.7 |